Location: Altleiningen
(49.5078°N, 8.0741°E)
Time: 11:49:44
(UTC+00:00)

USA 281 - Pass Details

Date: 03 March 2021
Orbit: 1076 x 1083 km, 106.0° (Epoch: 03 April)

Event Time Altitude Azimuth Distance (km) Brightness Sun altitude
Exits shadow 21:34:29 39° 345° (NNW) 1,579 4.3 -39.6°
Drops below altitude 10° 21:38:21 10° 337° (NNW) 2,927 6.1 -40.0°
Sets 21:40:53 0° 335° (NNW) 3,887 7.0 -40.3°
